Regional Weather Roundup
Issued by NWS

Home | Current Version | Previous Version | Graphics & Text | Print | Product List | Glossary Off
Versions: 1 2 3 4 5 6 7 8 9 10 11 12 13 14 15 16 17 18 19 20 21 22 23 24 25 26 27 28 29 30 31 32 33 34 35 36 37 38 39 40 41 42 43 44 45 46 47 48 49 50

000
ASUS43 KDMX 280507
RWRIA

WEATHER ROUNDUP FOR IOWA
NATIONAL WEATHER SERVICE DES MOINES IA
1200 AM CDT MON JUL 28 2014

NOTE: "FAIR" INDICATES FEW OR NO CLOUDS BELOW 12,000 FEET WITH NO
SIGNIFICANT WEATHER AND/OR OBSTRUCTIONS TO VISIBILITY.

* - THESE STATIONS ARE NOT NWS STATIONS...THUS NOT UNDER NWS
QUALITY CONTROL.  THEY ALSO DO NOT REPORT WEATHER SUCH
AS PRECIPITATION OR FOG.

IAZ001>003-012>014-020>022-031>034-043>046-280600-
   NORTHWEST IOWA

CITY           SKY/WX    TMP DP  RH WIND       PRES   REMARKS
CARROLL *      CLEAR     63  57  82 NW10      30.15S
CHEROKEE *     CLEAR     61  57  88 N8        30.18S
DENISON *      CLEAR     61  57  88 NW7       30.16S
LE MARS *      MOCLDY    59  55  88 NW6       30.21R
ORANGE CITY *  MOCLDY    63  55  77 N8        30.20S
SHELDON *      CLEAR     57  55  94 NW6       30.18S
SIOUX CITY     CLEAR     60  56  86 NW5       30.21R
SPENCER        CLEAR     59  56  89 NW8       30.18R
STORM LAKE *   CLEAR     59  59 100 N8        30.18S
$$

IAZ055>058-069>071-079>083-090>094-280600-
   SOUTHWEST IOWA

CITY           SKY/WX    TMP DP  RH WIND       PRES   REMARKS
ATLANTIC *     CLEAR     61  57  88 NE3       30.16R
AUDUBON *      CLEAR     64  59  82 NW8       30.17S
CLARINDA *     CLEAR     61  59  94 CALM      30.17R
COUNCIL BLFS *   N/A     64  59  82 N5        30.18R
CRESTON *      CLEAR     63  57  82 N10       30.14S
HARLAN  *      CLEAR     61  57  88 N6        30.21R
LAMONI         CLEAR     64  56  75 NW9       30.12R
RED OAK *      CLEAR     64  57  77 N9        30.17R
SHENANDOAH *   CLEAR     64  59  82 N6        30.17R
$$

IAZ047>049-059>061-072>074-084-280600-
   CENTRAL IOWA

CITY           SKY/WX    TMP DP  RH WIND       PRES   REMARKS
AMES           CLEAR     64  58  80 NW9       30.10R
ANKENY *       CLEAR     66  59  77 NW12      30.09S
CHARITON *     CLEAR     64  57  77 NW10      30.10S
DES MOINES     CLEAR     67  57  70 NW12      30.09S
GRINNELL*      CLEAR     61  59  94 W6        30.07S
KNOXVILLE *    CLEAR     64  57  77 NW8       30.07S
MARSHALLTOWN   CLEAR     63  60  90 NW10      30.07R
PELLA *        CLEAR     65  59  81 NW10      30.09R
PERRY *          N/A     61  57  88 W6        30.13S
$$

IAZ004>006-015-016-023>025-035-036-280600-
   NORTH CENTRAL IOWA

CITY           SKY/WX    TMP DP  RH WIND       PRES   REMARKS
ALGONA *       CLOUDY    64  59  82 NW13      30.14S
CLARION *      PTCLDY    63  61  94 NW10      30.12R
ESTHERVILLE    PTCLDY    60  57  89 NW10      30.16R
FORT DODGE *   CLEAR     63  57  82 NW5       30.13S
MASON CITY     CLOUDY    63  61  93 NW10      30.12R
FOREST CITY *  CLOUDY    63  63 100 NE7       30.13R
IOWA FALLS *     N/A     63  59  88 NW10      30.10R
$$

IAZ007>011-017>019-026>030-037>042-050>054-066-280600-
   NORTHEAST IOWA

CITY           SKY/WX    TMP DP  RH WIND       PRES   REMARKS
CEDAR RAPIDS   CLEAR     64  60  87 NW10      30.01R
CHARLES CITY * PTCLDY    63  61  94 N9        30.10R
CLINTON *      PTCLDY    64  59  82 N6        30.00S
DECORAH *      PTCLDY    61  57  88 N8        30.07R
DUBUQUE        PTCLDY    65  60  84 N12       30.01R
MONTICELLO *   MOCLDY    64  61  88 NW6       30.01R
OELWEIN *      PTCLDY    61  59  94 N8        30.06R
WATERLOO       CLEAR     63  61  93 NW9       30.05R
$$

IAZ064-065-067-068-078-280600-
   EAST CENTRAL IOWA

CITY           SKY/WX    TMP DP  RH WIND       PRES   REMARKS
DAVENPORT      MOCLDY    63  60  90 NW7       29.99R
IOWA CITY      CLEAR     67  61  81 NW10      30.02R
MT. PLEASANT * CLEAR     66  59  77 W10       30.02R
MUSCATINE *    CLEAR     66  61  82 NW9       30.00R
QUAD CITIES    MOCLDY    68  60  75 NW9       29.97R
$$

IAZ062-063-075>077-085>089-095>099-280600-
   SOUTHEAST IOWA

CITY           SKY/WX    TMP DP  RH WIND       PRES   REMARKS
BURLINGTON     CLEAR     66  60  81 NW9       30.00S
FAIRFIELD *    CLEAR     64  59  82 W9        30.04S
FORT MADISON * CLEAR     66  61  82 NW9       30.02S
KEOKUK *       CLEAR     66  59  77 W8        30.02S
OSKALOOSA *      N/A     64  59  82 NW10      30.06S
CENTERVILLE *  CLEAR     61  59  94 W7        30.10S
OTTUMWA        CLEAR     65  58  78 NW12      30.05S
WASHINGTON *   CLEAR     64  61  88 NW12      30.02S
$$

ABBREVIATIONS USED IN REMARKS
   TC - TEMPERATURES IN CELSIUS
  WCI - WIND CHILL INDEX
   HX - HEAT INDEX
  VSB - VISIBILITY
$$



USA.gov is the U.S. government's official web portal to all federal, state and local government web resources and services.